Location: Canet
(43.3261°N, 5.3723°E)
Time: 18:24:06
(UTC+00:00)

Cosmos 1092 Rocket - Pass Details

Date: 24 January 2021
Orbit: 954 x 995 km, 83.0° (Epoch: 02 March)

Event Time Altitude Azimuth Distance (km) Brightness Sun altitude
Rises 18:31:06 0° 196° (SSW) 3,650 7.3 -20.1°
Reaches altitude 10° 18:33:38 10° 200° (SSW) 2,701 6.6 -20.6°
Maximum altitude 18:39:45 63° 280° (W) 1,072 4.4 -21.7°
Drops below altitude 10° 18:45:52 10° 2° (N) 2,697 6.2 -22.8°
Sets 18:48:24 0° 5° (N) 3,645 6.9 -23.3°
